DECAYED

STARLINK-1137, 45092 (Decayed)

Orbit data source: Space-Track

STARLINK-1137, 45092 was a payload satellite owned by SpaceX/Seattle (US) in LEO that was launched on Wed, 29 Jan 2020 UTC via an FALCON 9 launch vehicle from the Air Force Eastern Test Range (AFETR). Payload-class satellites include a variety of spacecraft equipped with specific instruments for various scientific and technological missions. These include communications satellites like Starlink; space stations such as the ISS; scientific satellites like the Hubble; Earth observation satellites from companies like Planet Labs, Umbra, and HawkEye 360; GPS; miniature CubeSats for education and research; and military/defense satellites.

Not visible in the next 10 days
Identifier
45092, 2020-006BA
Orbit
Decayed
Country
Flag of USUS
Related business
Manufacturer
SpaceX/Seattle
Mission
Decayed Commercial Communications
Bus & Motor
STARLINK, Unknown motor
Mass
260 kg wet, ~248 kg dry
Launch date (UTC)
2020-01-29 (6 years ago)
Launch vehicle
FALCON 9
Launch site
Air Force Eastern Test Range (AFETR)
Object type
Payload
Rocket body
Debris
Shape & HBR
Box + 1 Pan, 10.1 m
Radar Cross Section
13.562 m², Large (>1 m²)

Expand to show TLE details & history
Last TLE update: 8 months ago

TLE from 8 months ago
0 STARLINK-1137
1 45092U 20006BA  25106.87928067  .06843795  11887-4  34335-2 0  9990
2 45092  53.0404 239.4949 0011182 326.6070 178.7176 16.19875315288589
Epoch: 2025-04-16T21:06Z
TLE epoch observation values (Epoch: 2025-04-16T21:06:09.849Z)
Latitude
27.12016°
Longitude
-124.83625°
Altitude
228.526 km
Speed
7.769 km/s
True Right ascension
02h 27m 51s
True Declination
26° 58' 11"
Sunlit
Object was in daylight at epoch
Visualization orbit readout
Latitude
Unknown
Longitude
Unknown
Altitude
Unknown
Speed
Unknown
Apparent Right ascension
Unknown
Apparent Declination
Unknown
Sunlit
N/A
Visualization observer readout
Local Sidereal Time
14:26:41
Azimuth
Unknown
Elevation
Unknown
Doppler factor
Unknown
Orbital elements
Apogee altitude
227.555 km
Perigee altitude
212.798 km
Semi-major axis
6,598.314 km
Eccentricity
0.00112
Inclination
53.0404°
RAAN
239.4949°
Arg. of periapsis
326.607°
True anomaly
178.72046°
Mean anomaly
178.7176°
Eccentric anomaly
178.71903°
Mean motion
4.04943 °/min
Orbital period
88.9 mins
BSTAR
0.0034335
Loading maneuver chart data...
Computing Atmospheric mass density...

Documentation

Showing up to 5 results
|